Regional Weather Roundup
Issued by NWS

Home | Current Version | Previous Version | Graphics & Text | Print | Product List | Glossary On
Versions: 1 2 3 4 5 6 7 8 9 10 11 12 13 14 15 16 17 18 19 20 21 22 23 24 25 26 27 28 29 30 31 32 33 34 35 36 37 38 39 40 41 42 43 44 45 46 47 48 49 50
000
ASUS43 KLMK 232102
RWRKY
KENTUCKY REGIONAL WEATHER ROUNDUP
NATIONAL WEATHER SERVICE LOUISVILLE KY
500 PM EDT SAT JUN 23 2018

NOTE "FAIR" INDICATES FEW OR NO CLOUDS BELOW 12,000 FEET
WITH NO SIGNIFICANT WEATHER AND/OR OBSTRUCTIONS TO VISIBILITY.

KYZ001>023-026-027-061>063-070>075-232200-
WESTERN AND SOUTH CENTRAL KENTUCKY

CITY           SKY/WX    TMP DP  RH WIND       PRES   REMARKS
PADUCAH        PTSUNNY   85  72  65 VRB5      29.78F HX  91
HENDERSON      FAIR      81  69  67 VRB3      29.81F
OWENSBORO      CLOUDY    81  69  67 SW9       29.81S
HOPKINSVILLE   FAIR      83  70  64 SW12      29.81F
BOWLING GREEN  FAIR      84  70  62 SW10G18   29.82F
GLASGOW        NOT AVBL
$$

KYZ024-025-028>034-038-045-046-053-232200-
NORTH CENTRAL KENTUCKY

CITY           SKY/WX    TMP DP  RH WIND       PRES   REMARKS
LOUISVILLE/SDF PTSUNNY   80  66  62 W12       29.81S
LOUISVILLE/LOU FAIR      80  67  64 W9        29.82R
FORT KNOX      FAIR      79  68  69 W8        29.83S
$$

KYZ035>037-039>044-047>052-055>060-089>105-232200-
NORTHEAST KENTUCKY

CITY           SKY/WX    TMP DP  RH WIND       PRES   REMARKS
LEXINGTON      FAIR      82  65  56 W9        29.83S
COVINGTON      PTSUNNY   78  64  61 W8        29.80S
FRANKFORT      FAIR      82  63  52 W9G21     29.81S
$$

KYZ054-064>069-076>088-106>120-232200-
SOUTHEAST KENTUCKY

CITY           SKY/WX    TMP DP  RH WIND       PRES   REMARKS
JACKSON        FAIR      82  68  62 CALM      29.85F
LONDON         FAIR      85  64  49 SW13      29.85S
SOMERSET       NOT AVBL
MIDDLESBORO    FAIR      84  67  54 S8        29.87S
MONTICELLO     MOCLDY    83  69  62 W15       29.86S
$$





USA.gov is the U.S. government's official web portal to all federal, state and local government web resources and services.